This is the latest recevied weather packets stored in our database for station/object KA1JKB. If no packets are shown the sender has not sent any weather packets the latest 10 day(s).
| Time | Temp. | Humidity | Pressure | Rain* | Wind** | Luminosity | Snow |
|---|---|---|---|---|---|---|---|
| 1777639971 | 5° C | 97% | 1011 hPa | 0 mm | - | 114 W/m² | - |
| 1777639669 | 5° C | 98% | 1010.8 hPa | 0 mm | - | 115 W/m² | - |
| 1777639367 | 5° C | 98% | 1010.6 hPa | 0 mm | - | 105 W/m² | - |
| 1777639061 | 5° C | 98% | 1010.8 hPa | 0 mm | - | 97 W/m² | - |
| 1777638759 | 4.44° C | 99% | 1010.8 hPa | 0 mm | - | 101 W/m² | - |
| 1777638454 | 4.44° C | 99% | 1011 hPa | 0 mm | - | 97 W/m² | - |
| 1777638152 | 4.44° C | 99% | 1010.9 hPa | 0 mm | - | 48 W/m² | - |
| 1777637847 | 4.44° C | 99% | 1010.7 hPa | 0 mm | - | 49 W/m² | - |
| 1777637544 | 4.44° C | 99% | 1010.7 hPa | 0 mm | - | 59 W/m² | - |
| 1777637241 | 4.44° C | 99% | 1010.6 hPa | 0 mm | - | 75 W/m² | - |
| 1777636938 | 3.89° C | 99% | 1010.6 hPa | 0 mm | - | 64 W/m² | - |
| 1777636634 | 3.89° C | 99% | 1010.6 hPa | 0 mm | - | 51 W/m² | - |
| 1777636330 | 3.89° C | 99% | 1010.6 hPa | 0 mm | - | 52 W/m² | - |
| 1777636029 | 3.89° C | 99% | 1010.4 hPa | 0 mm | - | 49 W/m² | - |
| 1777635726 | 3.89° C | 99% | 1010.6 hPa | 0 mm | - | 53 W/m² | - |
| 1777635423 | 3.89° C | 99% | 1010.6 hPa | 0 mm | - | 53 W/m² | - |
| 1777635120 | 3.89° C | 99% | 1010.5 hPa | 0 mm | - | 41 W/m² | - |
| 1777634815 | 3.89° C | 99% | 1010.5 hPa | 0 mm | - | 36 W/m² | - |
| 1777634513 | 3.89° C | 99% | 1010.1 hPa | 0 mm | - | 29 W/m² | - |
| 1777634209 | 3.89° C | 99% | 1010.5 hPa | 0 mm | - | 26 W/m² | - |
| 1777633906 | 3.89° C | 99% | 1010.5 hPa | 0 mm | - | 19 W/m² | - |
| 1777633604 | 3.89° C | 99% | 1010.7 hPa | 0 mm | - | 19 W/m² | - |
| 1777633301 | 3.89° C | 99% | 1010.4 hPa | 0 mm | - | 16 W/m² | - |
| 1777632999 | 3.89° C | 99% | 1010.5 hPa | 0 mm | - | 12 W/m² | - |
| 1777632695 | 3.89° C | 99% | 1010.7 hPa | 0 mm | - | 7 W/m² | - |
* Rain latest hour (hover to see other rain measurements)
** Current wind speed in m/s (hover to see current wind gust speed)